TimeEST,TemperatureF,Dew PointF,Humidity,Sea Level PressureIn,VisibilityMPH,Wind Direction,Wind SpeedMPH,Gust SpeedMPH,PrecipitationIn,Events,Conditions,WindDirDegrees,DateUTC
12:54 AM,43.0,25.0,49,30.22,10.0,WNW,17.3,29.9,N/A,,Overcast,290,2013-01-07 05:54:00
1:54 AM,42.1,25.0,51,30.23,10.0,WNW,12.7,19.6,N/A,,Mostly Cloudy,300,2013-01-07 06:54:00
2:54 AM,41.0,25.0,53,30.25,10.0,NW,13.8,18.4,N/A,,Overcast,320,2013-01-07 07:54:00
3:54 AM,39.0,25.0,57,30.26,10.0,NNW,9.2,-,N/A,,Overcast,330,2013-01-07 08:54:00
4:54 AM,37.0,24.1,59,30.28,10.0,NNW,11.5,-,N/A,,Partly Cloudy,330,2013-01-07 09:54:00
5:54 AM,34.0,21.9,61,30.33,10.0,NW,10.4,-,N/A,,Partly Cloudy,320,2013-01-07 10:54:00
6:54 AM,33.1,21.9,64,30.37,10.0,North,8.1,-,N/A,,Clear,350,2013-01-07 11:54:00
7:54 AM,32.0,21.0,64,30.41,10.0,North,8.1,-,N/A,,Clear,350,2013-01-07 12:54:00
8:54 AM,36.0,21.0,55,30.45,10.0,North,5.8,-,N/A,,Clear,350,2013-01-07 13:54:00
9:54 AM,39.0,21.0,49,30.46,10.0,North,5.8,-,N/A,,Clear,360,2013-01-07 14:54:00
10:54 AM,39.9,21.0,47,30.47,10.0,NNE,5.8,-,N/A,,Clear,30,2013-01-07 15:54:00
11:54 AM,43.0,21.0,42,30.43,10.0,NNE,4.6,-,N/A,,Clear,30,2013-01-07 16:54:00
12:54 PM,43.0,21.0,42,30.40,10.0,Calm,Calm,-,N/A,,Clear,0,2013-01-07 17:54:00
1:54 PM,46.0,21.0,37,30.39,10.0,Calm,Calm,-,N/A,,Clear,0,2013-01-07 18:54:00
2:54 PM,46.9,21.0,36,30.39,10.0,ESE,3.5,-,N/A,,Clear,120,2013-01-07 19:54:00
3:54 PM,46.9,19.9,34,30.40,10.0,Calm,Calm,-,N/A,,Clear,0,2013-01-07 20:54:00
4:54 PM,45.0,21.0,39,30.40,10.0,SE,3.5,-,N/A,,Clear,140,2013-01-07 21:54:00
5:54 PM,42.8,21.2,42,30.39,10.0,ESE,4.6,-,N/A,,Clear,110,2013-01-07 22:54:00
6:54 PM,42.1,21.9,45,30.44,10.0,ESE,4.6,-,N/A,,Clear,110,2013-01-07 23:54:00
7:54 PM,41.0,21.9,47,30.44,10.0,Calm,Calm,-,N/A,,Clear,0,2013-01-08 00:54:00
8:54 PM,37.0,21.9,54,30.44,10.0,Calm,Calm,-,N/A,,Clear,0,2013-01-08 01:54:00
9:54 PM,34.0,23.0,64,30.43,10.0,Calm,Calm,-,N/A,,Clear,0,2013-01-08 02:54:00
10:54 PM,30.0,21.9,72,30.43,10.0,Calm,Calm,-,N/A,,Clear,0,2013-01-08 03:54:00
11:54 PM,28.9,21.0,72,30.43,10.0,Calm,Calm,-,N/A,,Clear,0,2013-01-08 04:54:00